Regional Weather Roundup
Issued by NWS Green Bay, WI

Home | Current Version | Previous Version | Text Only | Print | Product List | Glossary On
Versions: 1 2 3 4 5 6 7 8 9 10 11 12 13 14 15 16 17 18 19 20 21 22 23 24 25 26 27 28 29 30 31 32 33 34 35 36 37 38 39 40 41 42 43 44 45 46 47 48 49 50
000
ASUS43 KGRB 211011
RWRGRB

NORTH-CENTRAL AND NORTHEAST WISCONSIN REGIONAL WEATHER ROUNDUP
NATIONAL WEATHER SERVICE GREEN BAY WI
500 AM CDT SAT OCT 21 2017

WIZ005-009-010>012-018-019-211100-
NORTH CENTRAL WISCONSIN

CITY           SKY/WX    TMP DP  RH WIND       PRES   REMARKS
IRONWOOD       CLOUDY    63  45  51 S10G20    29.78F
MANITOWISH WTR CLOUDY    58  46  63 S12       29.84S
ARBOR VITAE    CLOUDY    62  47  58 S12       29.86S
EAGLE RIVER    NOT AVBL
LAND O LAKES   CLOUDY    60  44  55 S7        29.88F
RHINELANDER    CLOUDY    60  45  57 S9        29.89S
PHILLIPS       MOCLDY    58  46  63 S10       29.83S
ANTIGO         MOCLDY    51  46  82 SE8       29.93R
TOMAHAWK       CLOUDY    57  45  63 S3        29.88S
MERRILL        CLOUDY    60  46  58 S6        29.89S
$$

WIZ013-073-211100-
NORTHEAST WISCONSIN

CITY           SKY/WX    TMP DP  RH WIND       PRES   REMARKS
IRON MOUNTAIN  CLOUDY    56  46  69 SE5       29.91S
MARINETTE      CLOUDY    62  48  60 S8        29.95S
OCONTO         CLOUDY    62  47  59 S5        29.94S
$$

WIZ017-030-035>037-045-211100-
CENTRAL WISCONSIN

CITY           SKY/WX    TMP DP  RH WIND       PRES   REMARKS
MEDFORD        CLOUDY    58  46  63 SE10      29.86S
WAUSAU         PTCLDY    60  46  59 S9        29.88S
MOSINEE        PTCLDY    55  45  67 SE9       29.91S
MARSHFIELD     CLOUDY    58  45  62 S9        29.87F
WISC RAPIDS    PTCLDY    61  47  59 S8        29.91S
STEVENS POINT  CLOUDY    58  45  60 S8        29.91S
WAUPACA        CLOUDY    61  47  61 SE6       29.94R
SHAWANO        CLOUDY    63  47  55 S3        29.93S
CLINTONVILLE   PTCLDY    59  46  63 S7        29.93S
WAUTOMA        NOT AVBL
$$

WIZ038-039-048-051-211100-
FOX VALLEY

CITY           SKY/WX    TMP DP  RH WIND       PRES   REMARKS
NWS GREEN BAY  CLOUDY    62  49  62 S9        29.95F
APPLETON       MOCLDY    61  43  51 S8        29.94F
OSHKOSH        CLOUDY    59  49  69 S12       29.94F
FOND DU LAC    CLOUDY    62  46  55 S12       29.96S
$$

WIZ022-050-052-211100-
EAST CENTRAL WISCONSIN

CITY           SKY/WX    TMP DP  RH WIND       PRES   REMARKS
EPHRAIM        FAIR      57  50  78 S7        29.96S
WASHINGTON ISL FAIR      55  52  88 S10G18    29.97R
STURGEON BAY   CLOUDY    58  50  75 S12       29.97S
MANITOWOC      CLOUDY    56  50  80 S6        29.99S
SHEBOYGAN      CLOUDY    59  50  72 S9        29.99S
$$

LMZ563-521-522-541>543-211100-
LAKESHORE

STATION/POSITION TIME  TEMP    WIND        PRES    VSBY  WAVE
                       AIR SEA DIR/SP/G                  HT/PER
                 (UTC) (F)     (DEG/KT/KT) (MB)    (MI)  (FT/S)
SHEBOYGAN LKSHOR 1000   58     190/ 12/ 13 1015.5R
KEWAUNEE LKSHORE 0942   52     180/  9/ 11 1014.4F
NORTHPORT PIER   0940   58     170/  6/ 11 1014.9S
N MID LAKE BUOY  0950   61 58  180/ 17/ 21 1015.6R         5/ 6
S GREEN BAY BUOY 1000   61 58  170/ 10/ 12 1014.1
MENOMINEE LKSHOR 0942   59     170/  8/ 12 1013.9R
$$



USA.gov is the U.S. government's official web portal to all federal, state and local government web resources and services.